Location: ????????
(55.3939°N, 37.4780°E)
Time: 07:33:08
(UTC+00:00)

Cosmos 1092 Rocket - Pass Details

Date: 14 April 2026
Orbit: 952 x 995 km, 83.0° (Epoch: 13 May)

Event Time Altitude Azimuth Distance (km) Brightness Sun altitude
Rises 22:44:26 0° 349° (N) 3,666 8.0 -23.1°
Reaches altitude 10° 22:47:00 10° 353° (N) 2,710 7.2 -23.0°
Maximum altitude 22:53:07 59° 73° (ENE) 1,096 4.4 -22.7°
Enters shadow 22:56:57 23° 146° (SE) 1,903 5.2 -22.4°
